AirNav   TITAN Aviation Fuels
 
 981 users online  

62C Cindy Guntly Memorial Airport
Franksville, Wisconsin, USA

GOING TO FRANKSVILLE?


FAA INFORMATION EFFECTIVE 02 DECEMBER 2021

Location

FAA Identifier: 62C
Lat/Long: 42-48-39.3800N 088-05-38.5300W
42-48.656333N 088-05.642167W
42.8109389,-88.0940361
(estimated)
Elevation: 790 ft. / 241 m (estimated)
Variation: 01W (1985)
From city: 7 miles NW of FRANKSVILLE, WI
Time zone: UTC -6 (UTC -5 during Daylight Saving Time)
Zip code: 53126

Airport Operations

Airport use: Open to the public
Activation date: 03/1962
Control tower: no
ARTCC: CHICAGO CENTER
FSS: GREEN BAY FLIGHT SERVICE STATION
NOTAMs facility: GRB (NOTAM-D service available)
Attendance: MON-FRI 0830-1800, ALL SAT 1100-1800
Wind indicator: yes
Segmented circle: no
Lights: ACTVT LIRL RY 01/19 - CTAF.

Airport Communications

CTAF: 122.9
WX AWOS-3 at BUU (12 nm SW): 125.275 (262-757-0907)
WX ASOS at MKE (12 nm NE): 126.4 (414-489-2168)
WX AWOS-3PT at 57C (12 nm W): 118.125 (262-642-1845)
WX ASOS at RAC (13 nm E): 121.425 (262-635-0959)
WX ASOS at ENW (15 nm SE): PHONE 262-652-7730
WX AWOS-3 at UES (15 nm NW): 118.875 (262-521-5226)
WX AWOS-3 at MWC (18 nm N): PHONE 414-461-2954

Nearby radio navigation aids

VOR radial/distance  VOR name  Freq  Var
BAEr154/20.2BADGER VOR/DME116.4002E
OBKr352/35.9NORTHBROOK VOR/DME113.0002W
BJBr179/(36.7)WEST BEND VOR109.8001W

 
NDB name  Hdg/Dist  Freq  Var  ID
ROCK RIVER129/35.237101WRYV .-. -.-- ...-

Airport Services

Fuel available: 100LL UL94
Parking: tiedowns
Airframe service: MAJOR
Powerplant service: MAJOR
Bottled oxygen: NONE
Bulk oxygen: NONE

Runway Information

Runway 1/19

Dimensions: 2425 x 70 ft. / 739 x 21 m
Surface: turf, in fair condition
Runway edge lights: non-standard
RY 01/19 NSTD LIRL HAS 2 PAIRS OF LGTS EACH END.
RUNWAY 1  RUNWAY 19
Latitude: 42-48.482333N42-48.874167N
Longitude: 088-05.704833W088-05.600500W
Elevation: 777.0 ft.782.0 ft.
Traffic pattern: leftleft
Runway heading: 012 magnetic, 011 true192 magnetic, 191 true
Obstructions: 55 ft. tree, 875 ft. from runway, 150 ft. right of centerline, 16:1 slope to clear40 ft. trees, 100 ft. left and right of centerline

Runway 18/36

Dimensions: 1200 x 80 ft. / 366 x 24 m
Surface: turf, in fair condition
ROUGH & UNDULATING ROLLING TERRAIN.
RUNWAY 18  RUNWAY 36
Latitude: 42-48.710167N42-48.512667N
Longitude: 088-05.616333W088-05.625667W
Elevation: 776.0 ft.790.0 ft.
Traffic pattern: leftleft
Runway heading: 183 magnetic, 182 true003 magnetic, 002 true
Obstructions: 64 ft. trees, 900 ft. from runway, 150 ft. right of centerline, 14:1 slope to clear29 ft. trees, 500 ft. from runway, 150 ft. right of centerline, 17:1 slope to clear

Airport Ownership and Management from official FAA records

Ownership: Privately-owned
Owner: THOMAS GUNTLY
22031 SIX MILE RD
FRANKSVILLE, WI 53126
Phone 262-895-2948
Manager: THOMAS GUNTLY
22031 SIX MILE RD
CALEDONIA, WI 53108
Phone 262-895-2948
EMAIL ADDRESS: AOLDPILOT@GMAIL.COM (ALL LOWER CASE)

Airport Operational Statistics

Aircraft based on the field: 44
Single engine airplanes: 40
Multi engine airplanes: 1
Helicopters: 2
Ultralights: 1
    
Aircraft operations: avg 128/week *
78% local general aviation
22% transient general aviation
* for 12-month period ending 02 May 2019

Additional Remarks

RY 18 & 19 GND DROPS OFF RAPIDLY AT 'S' END.
FOR CD CTC CHICAGO ARTCC AT 630-906-8921.

Instrument Procedures

There are no published instrument procedures at 62C.

Some nearby airports with instrument procedures:

KBUU - Burlington Municipal Airport (12 nm SW)
KMKE - General Mitchell International Airport (12 nm NE)
57C - East Troy Municipal Airport (12 nm W)
KRAC - Batten International Airport (13 nm E)
KENW - Kenosha Regional Airport (15 nm SE)
KUES - Waukesha County Airport (15 nm NW)
C02 - Grand Geneva Resort Airport (18 nm SW)
KMWC - Lawrence J Timmerman Airport (18 nm N)
 
Loc | Ops | Rwys | IFR | FBO | Links
Com | Nav | Svcs | Stats | Notes
Area around 62C (Cindy Guntly Memorial Airport)
 
Road maps at: MapQuest Bing Google
 
Aerial photo
WARNING: Photo may not be current or correct
Aerial photo of 62C (Cindy Guntly Memorial Airport)
Photo by Amy Gesch
Photo taken 17-Oct-2005

Do you have a better or more recent aerial photo of Cindy Guntly Memorial Airport that you would like to share? If so, please send us your photo.

 
Sectional chart

 
Airport distance calculator
Flying to Cindy Guntly Memorial Airport? Find the distance to fly.

From to 62C

Sunrise and sunset
Times for 03-Dec-2021
 Local
(UTC-6)
 Zulu
(UTC)
Morning civil twilight06:3512:35
Sunrise07:0613:06
Sunset16:1822:18
Evening civil twilight16:5022:50

Current date and time
Zulu (UTC)  04-Dec-2021 02:00:18
Local (UTC-6)  03-Dec-2021 20:00:18
 
METAR
KBUU 
12nm SW 
040135Z AUTO 00000KT 1/4SM M01/M01 A3011 RMK AO2 T10081008 PWINO
KMKE 
12nm NE 
040152Z 33004KT 9SM FEW250 03/01 A3011 RMK AO2 SLP202 T00330011
K57C 
12nm W 
040135Z AUTO 29004KT 3/4SM BR OVC003 00/00 A3011 RMK AO2 T00040004
KUES 
12nm N 
040145Z 30005KT 5SM BR CLR 00/00 A3012
KRAC 
12nm E 
040153Z AUTO 30005KT 4SM BR CLR 03/02 A3013 RMK AO2 SLP208 T00280017
KENW 
15nm SE 
040153Z 00000KT 6SM BR CLR 02/01 A3011 RMK AO2 SLP202 T00170006
KMWC 
19nm N 
040145Z 00000KT 7SM CLR 01/M01 A3011
TAF
KMKE 
12nm NE 
032104Z 0321/0424 11003KT P6SM OVC060 TEMPO 0321/0323 BKN012 FM040000 00000KT P6SM SCT040 FM041300 31010G21KT P6SM FEW250
KUES 
12nm N 
031720Z 0318/0418 13003KT 3SM BR OVC006 FM031900 14003KT 5SM BR BKN010 FM032300 00000KT P6SM SCT022 FM041200 31009KT P6SM SCT250 FM041400 31010G19KT P6SM FEW250
KENW 
15nm SE 
031720Z 0318/0418 10005KT P6SM OVC010 FM032100 12005KT P6SM BKN029 FM032200 10004KT P6SM SCT045 FM040800 31008KT P6SM FEW180 FM041500 31010G19KT P6SM FEW250
NOTAMs
Click for the latest NOTAMs
NOTAMs are issued by the DoD/FAA and will open in a separate window not controlled by AirNav.

 

 
 

FBO, Fuel Providers, and Aircraft Ground Support

  
 Business Name 
 
 Contact 
 
 Services / Description 
 
Fuel Prices
 
Comments
  
Guntly Aircraft Repair 262-895-2948
no information available

If you are affiliated with Guntly Aircraft Repair and would like to show here your services, contact info, web link, logo, and more, click here
100LL UL94
FS $5.00 --- 
SS --- $4.00 
 Updated 03-Dec-2021
 
   write
FS=Full service
SS=Self service
Update Fuel Prices
 

Would you like to see your business listed on this page?

 If your business provides an interesting product or service to pilots, flight crews, aircraft, or users of the Cindy Guntly Memorial Airport, you should consider listing it here.  To start the listing process, click on the button below
 
Add a business
 

Other Pages about Cindy Guntly Memorial Airport

Page from the Wisconsin airport directory (PDF)
 
Update a link
 
Copyright © AirNav, LLC. All rights reserved. Privacy Policy  Contact